Cloud_Cover
8 8 8 8 0 0 0 0 0 0 0 0 0 0 0 0 0 0 0 0 0 0 0 0 24 68 88 76 48 48 48 36 12 0 0 0 0 24 56 48 36 48 68 68 64 56 36 0 12 32 44 48 56 68 76 92 80 76 68 80 88 92 92 92 92 92 92 92 92
8 8 8 8 8 8 8 8 8 0 0 0 0 0 0 0 0 0 0 0 0 0 0 0 32 56 64 56 44 32 20 0 0 0 0 0 20 24 24 8 12 32 48 56 56 56 48 24 24 48 76 80 76 56 56 88 64 56 64 88 92 88 80 76 80 80 88 88 88
8 8 8 8 8 8 8 8 8 0 0 0 0 0 0 0 0 0 0 0 0 0 0 0 12 20 32 32 36 32 24 12 8 12 20 20 20 20 20 20 20 12 8 8 12 24 36 32 12 8 12 12 12 24 36 48 20 12 32 68 80 76 68 68 76 76 80 80 92
12 12 12 12 8 8 8 8 8 0 0 0 0 0 0 0 0 0 0 0 0 0 0 0 0 0 20 56 36 32 24 24 32 56 76 76 68 68 68 48 32 12 0 0 0 0 0 0 0 8 20 32 48 48 56 56 32 48 76 80 80 80 80 80 80 80 80 88 76
12 12 12 12 12 8 8 8 8 0 0 0 0 0 0 0 0 0 0 0 0 0 0 0 24 36 44 44 24 12 12 36 48 68 80 76 80 80 76 68 68 68 48 0 0 8 20 56 44 64 88 88 88 88 88 80 80 80 80 88 88 88 88 88 88 88 88 88 68
12 12 12 12 8 8 8 8 8 0 0 0 0 0 0 0 0 0 0 0 8 8 12 44 56 64 64 56 56 56 64 68 64 64 68 80 76 76 76 76 76 76 76 68 48 68 88 88 92 92 92 92 92 92 88 80 76 76 80 88 88 88 80 68 80 76 56 48 44
12 12 12 8 8 8 8 8 8 0 0 0 0 0 0 0 0 0 0 0 8 8 12 56 12 0 8 20 24 36 48 68 68 64 64 80 80 76 76 76 80 80 80 80 76 76 76 36 68 80 88 88 88 88 88 88 88 68 56 88 88 80 68 68 56 32 12 32 68
8 8 8 8 8 8 8 8 8 0 0 0 0 0 0 0 0 0 8 12 24 48 68 64 32 20 20 24 36 44 48 56 68 76 76 76 80 80 76 76 80 80 80 80 80 80 76 76 80 80 88 88 88 88 88 88 88 80 76 88 88 80 68 68 56 32 12 36 48
8 8 8 8 8 8 8 8 0 8 8 8 8 8 8 8 0 0 8 20 44 36 24 36 12 12 20 32 48 56 64 80 88 88 88 88 92 92 88 88 80 80 88 88 88 80 76 80 80 88 88 80 80 88 88 88 88 80 76 80 88 88 80 68 68 64 48 48 36
20 12 8 8 8 8 8 8 8 8 8 8 12 12 8 8 8 8 8 8 0 0 0 0 0 12 24 44 68 88 92 92 92 92 92 92 92 92 92 88 88 88 92 92 88 80 76 88 88 88 88 88 88 88 88 88 88 88 80 80 88 88 88 88 88 80 76 76 44
20 12 8 8 8 8 8 8 8 8 8 8 0 0 8 8 0 0 0 0 0 0 0 0 0 8 8 8 56 76 76 76 88 92 92 92 92 92 92 92 88 92 92 92 92 88 88 88 88 88 88 88 88 88 88 88 88 88 88 88 88 88 88 88 88 88 80 80 64
20 12 12 12 8 8 8 8 8 8 8 8 8 8 8 8 0 0 0 0 0 0 0 8 0 0 0 0 8 12 20 24 56 76 80 92 92 92 92 88 80 88 92 88 88 88 88 80 80 88 88 88 88 88 88 88 88 88 88 88 88 88 88 88 88 80 80 68 76
20 12 12 12 12 12 12 12 8 8 8 8 8 8 8 0 0 0 0 8 8 8 8 0 0 0 8 20 32 36 44 44 44 44 56 80 88 88 88 88 88 88 88 88 88 88 88 88 88 88 88 88 88 88 88 88 80 80 80 80 88 88 80 76 80 76 64 56 56
20 20 12 12 12 12 12 12 12 8 8 8 8 12 20 20 12 20 24 8 8 0 0 0 0 12 44 76 88 92 92 92 92 80 76 88 92 92 92 92 80 80 88 88 88 88 88 88 88 88 88 88 88 88 88 88 80 80 80 80 80 80 80 76 80 56 36 48 44
20 20 20 20 20 20 20 20 20 12 8 8 20 20 24 24 24 44 56 24 20 24 36 32 36 48 68 76 88 92 92 92 92 92 92 92 92 92 92 88 80 80 88 88 88 88 88 88 88 88 88 88 88 88 88 88 88 88 80 64 76 76 76 64 64 36 12 24 56
20 20 24 24 20 20 20 24 32 32 24 20 24 20 20 12 24 44 64 64 64 76 88 80 64 64 68 68 88 92 92 92 92 88 80 92 92 88 88 80 88 88 88 88 80 80 88 80 88 88 88 88 88 88 88 88 88 88 80 64 68 68 64 56 32 20 8 0 36
24 24 24 24 24 20 20 24 32 36 44 44 44 48 44 24 36 64 76 76 88 88 76 56 48 64 80 92 92 92 92 92 88 80 80 92 92 88 80 88 88 88 88 80 76 76 80 80 88 88 88 88 88 88 88 88 88 80 80 76 76 76 64 24 20 20 20 20 36
24 24 24 24 20 20 20 20 20 32 44 44 56 56 56 64 68 80 88 76 80 76 64 64 88 92 92 92 92 92 88 80 80 80 80 80 80 76 80 88 88 88 88 80 76 76 80 88 88 88 88 88 88 80 80 80 80 80 76 76 76 76 64 32 44 48 48 56 64
24 24 20 20 20 12 12 12 12 24 36 32 56 68 76 92 92 92 88 80 80 76 68 68 88 92 92 92 92 92 92 88 80 76 76 80 68 76 88 88 88 88 88 80 76 76 80 88 80 80 80 88 80 80 76 76 76 76 80 80 80 80 80 68 76 76 68 68 56
20 20 20 12 12 12 12 12 12 20 36 48 76 88 92 92 92 92 92 92 92 88 88 80 88 92 92 92 92 88 88 88 88 80 76 88 80 80 88 88 88 76 64 64 68 76 88 88 88 80 76 80 76 76 76 76 76 76 76 80 80 80 80 80 80 76 76 68 64
20 12 12 12 12 12 12 8 12 20 32 56 80 88 92 92 92 92 92 92 92 92 92 92 92 92 92 92 92 88 88 88 88 88 80 80 88 88 88 80 80 68 64 76 64 68 80 88 88 80 80 76 80 80 76 76 76 80 80 80 80 80 80 80 80 76 76 76 76
24 32 44 12 12 8 8 8 8 20 44 76 88 88 88 92 88 92 92 92 92 92 92 92 92 92 92 88 88 88 88 92 92 88 88 88 88 80 80 80 68 68 68 64 48 44 44 56 56 56 48 36 64 64 64 68 76 80 80 80 80 80 80 80 80 80 80 80 76
64 48 32 20 12 20 24 24 32 36 48 88 88 88 88 92 92 92 92 92 92 92 92 92 92 88 88 88 88 88 92 92 88 88 88 88 88 80 64 32 32 44 56 44 24 8 8 20 20 24 32 20 64 68 64 48 68 76 76 76 80 80 80 80 80 76 80 80 80
68 68 68 36 48 44 32 24 68 80 80 92 88 88 88 92 92 92 92 92 92 92 92 92 92 92 92 88 88 92 92 92 88 88 80 80 80 64 36 24 20 24 32 36 24 12 8 24 36 56 68 68 76 76 64 44 64 68 68 76 76 80 80 80 68 68 76 76 76
36 44 48 48 48 44 24 12 68 92 92 92 92 92 92 92 92 92 92 92 92 92 92 92 92 92 92 88 88 68 56 88 88 80 80 80 80 80 76 76 56 44 48 76 68 44 20 24 32 36 56 76 76 76 68 56 48 64 68 68 76 76 76 80 68 64 64 76 76
64 56 64 68 56 44 36 36 76 92 92 92 92 92 92 88 88 88 88 92 92 88 88 88 88 88 88 88 92 88 80 88 88 88 88 88 88 88 88 88 80 80 80 88 88 80 76 76 76 56 36 32 36 48 64 76 64 56 56 64 68 68 68 68 64 64 64 64 80
88 88 88 88 88 76 68 88 88 92 88 88 88 88 88 88 88 88 88 88 88 88 88 88 88 92 92 92 88 88 80 88 88 88 88 88 88 88 88 88 88 88 88 88 88 88 88 88 88 64 32 0 8 32 56 76 76 68 64 64 68 76 76 64 80 80 88 88 88
92 92 92 92 92 92 92 92 92 92 88 88 88 88 88 88 88 88 88 88 88 88 88 88 88 88 88 88 88 88 88 88 88 88 88 88 88 88 88 88 88 88 88 88 88 88 88 88 88 80 56 0 0 24 56 76 76 76 76 76 76 80 76 68 80 80 88 88 88
92 92 92 92 92 92 92 92 88 88 88 88 88 88 88 88 88 88 88 88 88 88 88 88 88 88 88 88 88 88 88 88 88 80 80 80 80 88 88 88 88 88 88 88 88 88 88 88 88 80 64 8 0 12 44 76 76 68 68 80 68 64 64 68 80 80 88 88 76
92 92 92 92 92 88 88 88 88 88 88 88 88 88 88 88 88 88 88 88 88 88 88 88 88 88 88 88 88 88 80 88 88 80 80 80 80 80 68 44 76 88 88 88 88 88 88 88 88 80 64 12 0 0 0 0 8 36 56 44 48 48 48 56 68 64 56 64 56
88 88 88 88 88 88 88 88 88 88 88 88 88 88 88 88 88 88 88 88 88 88 88 88 80 80 80 88 88 88 88 80 88 88 80 80 88 68 48 36 76 88 88 88 88 88 88 88 80 76 48 0 0 0 0 0 0 12 20 20 44 56 68 88 88 88 88 68 64
88 88 88 88 80 80 88 88 92 92 92 88 88 88 88 88 88 88 88 88 88 88 80 68 80 80 88 88 80 80 80 80 88 80 76 64 76 56 36 56 80 88 88 88 88 88 88 80 76 36 0 0 0 0 0 0 0 0 0 8 64 88 88 88 88 88 88 80 68
88 88 88 88 88 88 80 88 88 92 88 88 88 88 88 88 88 88 88 88 88 80 80 88 80 88 80 80 80 80 80 88 80 80 80 80 76 76 76 56 80 88 88 88 88 88 88 88 20 0 0 0 0 0 0 0 0 0 0 8 24 48 76 76 76 76 64 48 12
88 88 88 88 88 88 88 88 88 88 88 88 88 88 88 88 88 88 88 88 88 80 80 80 80 80 80 80 80 80 80 80 68 76 80 80 80 88 88 88 88 88 88 88 88 80 76 68 12 0 0 0 0 0 0 0 0 0 0 0 0 0 0 0 0 0 0 0 0
88 88 88 88 88 88 92 92 88 88 88 88 88 88 88 88 88 88 88 88 80 80 80 80 80 80 80 80 80 80 80 80 80 80 76 68 80 80 80 80 88 76 68 64 64 44 12 0 0 0 0 0 0 0 0 0 0 0 0 0 0 0 0 0 0 0 0 0 0
88 88 88 88 88 88 88 88 88 88 88 88 88 88 88 88 88 88 88 80 64 68 80 80 80 80 80 80 80 80 76 68 76 76 76 76 64 56 64 80 76 44 8 0 0 0 0 0 0 0 0 0 0 0 0 0 0 0 0 0 0 0 0 0 0 0 0 0 0
88 88 88 88 88 88 88 88 88 88 88 88 88 88 88 88 88 80 80 64 64 68 76 76 76 76 80 80 80 80 80 80 64 44 36 32 8 12 32 44 32 12 0 0 0 0 0 0 0 0 0 0 0 0 0 0 0 0 0 0 0 0 0 0 0 0 0 0 0
88 88 88 88 88 88 88 88 88 88 88 88 88 88 88 88 88 80 80 80 76 76 76 76 76 76 76 76 76 68 56 56 12 0 0 0 0 0 0 0 0 0 0 0 0 0 0 0 0 0 0 0 0 0 0 0 0 0 0 0 0 0 0 0 0 0 0 0 0
88 88 88 88 88 88 88 88 88 88 88 88 80 80 80 88 88 88 80 80 76 76 76 76 76 76 68 48 36 24 12 8 12 12 8 0 0 0 0 0 0 0 0 0 0 0 0 0 0 0 0 8 0 0 0 0 0 0 0 0 0 0 0 0 0 0 0 0 0
88 88 88 88 80 80 88 88 88 88 80 76 76 80 88 88 88 80 80 76 68 68 76 76 76 56 32 0 0 0 0 0 12 20 20 8 0 8 8 0 0 8 12 20 0 0 0 0 0 0 0 8 0 0 0 0 0 0 0 0 0 0 0 0 0 0 0 0 0
88 88 80 64 68 76 88 88 88 80 76 68 80 88 80 80 88 80 76 68 64 68 76 76 76 36 0 0 0 0 0 0 0 8 8 8 0 8 12 0 0 8 12 12 32 20 0 0 0 0 0 0 0 0 0 0 0 0 0 0 0 0 0 0 0 0 0 0 0